Weather History for KODX - October, 2013

Change the Weather History Date:

Thursday, October 3, 2013

  Actual Average Record
Temperature  
Mean Temperature 57 °F 55 °F  
Max Temperature 61 °F 70 °F - ()
Min Temperature 52 °F 41 °F - ()
Degree Days  
Heating Degree Days 8 10  
Month to date heating degree days 13 30  
Since 1 July heating degree days 65 167  
Cooling Degree Days 0 1  
Month to date cooling degree days 0 3  
Year to date cooling degree days 906 841  
Growing Degree Days 6 (Base 50)    
Moisture  
Dew Point 55 °F    
Average Humidity 94    
Maximum Humidity 100    
Minimum Humidity 87    
Precipitation  
Precipitation 0.01 in 0.08 in - ()
Month to date precipitation 0.04 0.23  
Year to date precipitation 22.27 21.58  
Sea Level Pressure  
Sea Level Pressure 29.80 in    
Wind  
Wind Speed 7 mph (NE)    
Max Wind Speed 16 mph    
Max Gust Speed 22 mph    
Visibility 10 miles    
Events Rain    
T = Trace of Precipitation, MM = Missing Value Source: NWS Daily Summary

Daily Weather History Graph

Daily Weather History Graph

Search for Another Location

Airport or City:

Trip Planner

Search our weather history database for the weather conditions in past years. The results will help you decide how hot, cold, wet, or windy it might be!

Date:

Astronomy

Oct. 03, 2013 Rise Set
Actual Time 7:35 AM CDT 7:13 PM CDT
Civil Twilight 7:07 AM CDT 7:41 PM CDT
Nautical Twilight 6:35 AM CDT 8:13 PM CDT
Astronomical Twilight 6:02 AM CDT 8:45 PM CDT
Moon 6:09 AM CDT (10/3) 6:23 PM CDT (10/3)
Length of Visible Light 12h 33m
Length of Day
11h 38m
Waning Crescent, 2% of the Moon is Illuminated
Oct 3
Waning Crescent
Oct 4
New
Oct 11
First Quarter
Oct 18
Full
Oct 26
Last Quarter

Hourly Weather History & Observations

Time (CDT) Temp. Dew Point Humidity Pressure Visibility Wind Dir Wind Speed Gust Speed Precip Events Conditions
12:53 AM 59.0 °F 57.0 °F 93% 29.79 in 10.0 mi NNE 3.5 mph - N/A   Clear
1:03 AM 59.0 °F 57.2 °F 94% 29.81 in 10.0 mi NE 4.6 mph - N/A   Scattered Clouds
1:11 AM 60.8 °F 59.0 °F 94% 29.81 in 10.0 mi NE 3.5 mph - N/A   Mostly Cloudy
1:39 AM 60.8 °F 57.2 °F 88% 29.83 in 10.0 mi Calm Calm - N/A   Scattered Clouds
1:53 AM 59.0 °F 57.9 °F 96% 29.81 in 10.0 mi Calm Calm - N/A   Clear
2:53 AM 59.0 °F 57.0 °F 93% 29.80 in 10.0 mi ENE 3.5 mph - N/A   Mostly Cloudy
3:30 AM 59.0 °F 57.2 °F 94% 29.81 in 10.0 mi NNE 4.6 mph - N/A   Mostly Cloudy
3:53 AM 59.0 °F 57.0 °F 93% 29.79 in 10.0 mi NNE 4.6 mph - N/A   Overcast
4:53 AM 59.0 °F 57.0 °F 93% 29.78 in 10.0 mi ENE 3.5 mph - N/A   Overcast
5:53 AM 59.0 °F 57.0 °F 93% 29.77 in 10.0 mi ENE 3.5 mph - N/A   Overcast
6:53 AM 59.0 °F 57.0 °F 93% 29.77 in 10.0 mi ENE 5.8 mph - N/A   Overcast
7:00 AM 59.0 °F 57.2 °F 94% 29.79 in 10.0 mi East 4.6 mph - N/A   Overcast
7:53 AM 59.0 °F 57.0 °F 93% 29.77 in 10.0 mi East 4.6 mph - N/A   Overcast
8:53 AM 59.0 °F 57.0 °F 93% 29.77 in 10.0 mi ESE 6.9 mph - N/A   Overcast
9:53 AM 60.1 °F 57.9 °F 93% 29.79 in 9.0 mi Calm Calm - N/A   Overcast
10:53 AM 57.0 °F 55.0 °F 93% 29.80 in 9.0 mi North 5.8 mph - N/A   Overcast
11:53 AM 55.9 °F 54.0 °F 93% 29.81 in 10.0 mi North 11.5 mph - 0.00 in Rain Light Rain
12:53 PM 52.0 °F 51.1 °F 97% 29.83 in 5.0 mi North 13.8 mph - 0.01 in Rain Light Rain
1:53 PM 53.1 °F 51.1 °F 93% 29.81 in 8.0 mi NNE 15.0 mph 21.9 mph 0.00 in   Overcast
2:53 PM 54.0 °F 52.0 °F 93% 29.80 in 9.0 mi NNE 15.0 mph - N/A   Overcast
3:48 PM 55.4 °F 51.8 °F 88% 29.80 in 10.0 mi NE 9.2 mph 17.3 mph 0.00 in Rain Light Rain
3:53 PM 55.0 °F 52.0 °F 89% 29.80 in 10.0 mi NE 9.2 mph 17.3 mph 0.00 in Rain Light Rain
4:38 PM 55.4 °F 53.6 °F 94% 29.80 in 10.0 mi ENE 6.9 mph - 0.00 in   Overcast
4:50 PM 57.2 °F 53.6 °F 88% 29.79 in 10.0 mi ENE 4.6 mph - 0.00 in Rain Light Rain
4:53 PM 57.0 °F 54.0 °F 89% 29.79 in 10.0 mi Variable 4.6 mph - 0.00 in Rain Light Rain
5:53 PM 57.9 °F 55.9 °F 93% 29.79 in 7.0 mi ENE 5.8 mph - 0.00 in Rain Light Rain
6:23 PM 57.2 °F 55.4 °F 94% 29.79 in 10.0 mi NE 4.6 mph - 0.00 in   Overcast
6:36 PM 59.0 °F 55.4 °F 88% 29.78 in 10.0 mi NNE 6.9 mph - 0.00 in   Overcast
6:53 PM 59.0 °F 55.9 °F 90% 29.78 in 10.0 mi East 5.8 mph - 0.00 in   Overcast
7:53 PM 59.0 °F 55.9 °F 90% 29.79 in 10.0 mi ENE 4.6 mph - N/A   Overcast
8:53 PM 59.0 °F 55.9 °F 90% 29.79 in 10.0 mi NNE 9.2 mph - N/A   Overcast
9:42 PM 59.0 °F 55.4 °F 88% 29.81 in 10.0 mi North 8.1 mph - N/A   Overcast
9:51 PM 57.2 °F 55.4 °F 94% 29.81 in 10.0 mi NNE 9.2 mph - N/A   Overcast
9:53 PM 57.9 °F 55.0 °F 90% 29.81 in 10.0 mi North 10.4 mph - N/A   Overcast
10:22 PM 57.2 °F 53.6 °F 88% 29.80 in 10.0 mi NNE 9.2 mph - N/A   Overcast
10:37 PM 55.4 °F 53.6 °F 94% 29.79 in 10.0 mi North 6.9 mph - N/A   Overcast
11:53 PM 55.9 °F 55.0 °F 97% 29.78 in 6.0 mi NNE 8.1 mph - N/A   Overcast